Location: Eastview
(35.0756°N, 88.5453°W)
Time: 23:27:42
(UTC+00:00)

Daily predictions for brighter satellites

Satellite Brightness Start Highest point End
(mag) Time Altitude Azimuth Time Altitude Azimuth Time Altitude Azimuth
STARLINK 1044 3.0 12:01:12 10° WSW 12:03:53 42° NW 12:06:36 10° NNE
Exosat Rocket 4.5 12:00:48 10° NNW 12:06:58 90° ESE 12:15:46 10° SSE
Cosmos 2360 Rocket 3.2 12:07:03 10° NW 12:11:40 26° WSW 12:16:15 10° SSW
Cosmos 1328 Rocket 3.7 23:05:56 10° S 23:10:14 56° E 23:14:32 10° NNE
CORIOLIS 4.3 23:10:08 10° SSE 23:15:21 51° ENE 23:20:36 10° N
SeaSat 1 4.1 23:13:21 10° E 23:15:48 14° NE 23:18:15 10° NNE
Cosmos 1515 Rocket 4.0 23:14:31 10° SSE 23:18:37 40° E 23:22:42 10° NNE
DELTA 2 R/B (1) 3.6 23:13:45 10° WSW 23:19:22 88° NNW 23:24:57 10° ENE
Cosmos 1666 Rocket 3.5 23:16:43 10° N 23:21:04 88° E 23:25:22 10° S
Okean O Rocket 3.8 23:19:10 10° SSW 23:23:04 31° W 23:26:57 10° NW
YAOGAN 6 4.0 23:22:18 10° ESE 23:24:32 16° ENE 23:26:47 10° NNE
Cosmos 2228 Rocket 3.9 23:20:52 10° SSE 23:24:45 30° E 23:28:40 10° NNE
CZ-4 R/B 2.8 23:22:15 10° ESE 23:24:56 17° ENE 23:27:35 10° NNE
GEOS 3 Rocket 3.8 23:22:19 10° NE 23:27:29 57° ESE 23:32:40 10° SSW
COSMO-SKYMED 1 3.2 23:24:05 10° NNE 23:28:03 34° E 23:31:59 10° SSE
COSMOS 2455 3.8 23:24:13 10° SSE 23:29:14 28° ESE 23:34:10 10° NE
Cosmos 2360 Rocket 3.8 23:28:56 10° SE 23:31:52 14° E 23:33:39 13° ENE
Cosmos 1933 3.6 23:28:13 10° SSE 23:32:07 48° E 23:36:02 10° NNE
Cosmos 1862 3.6 23:28:24 10° N 23:32:24 73° W 23:36:22 10° S
Cosmos 1624 Rocket 4.2 23:27:33 10° N 23:32:46 52° ENE 23:37:56 10° SSE
Cosmos 2056 Rocket 3.6 23:29:27 10° N 23:34:29 52° ENE 23:39:35 10° SSE
Cosmos 1980 Rocket 3.1 23:31:41 10° SW 23:37:09 50° WNW 23:42:42 10° N
Cosmos 2034 Rocket 4.0 23:31:29 10° N 23:37:53 77° E 23:44:15 10° S
H-2A R/B 2.8 23:34:37 10° S 23:38:27 80° WSW 23:42:15 10° NNW
ISS -3.8 23:35:42 10° SW 23:39:02 87° NW 23:41:34 16° NE
SL-16 R/B 2.5 23:35:23 10° S 23:40:47 47° ESE 23:46:12 10° NNE
COBE Rocket 4.1 23:38:15 10° N 23:42:55 70° WNW 23:47:31 10° SSW
ATLAS 5 CENTAUR R/B 3.7 23:41:11 10° SSW 23:43:48 16° SSE 23:48:28 10° ESE
YAOGAN 1 3.6 23:40:54 10° ESE 23:44:18 23° ENE 23:47:42 10° NNE
Cosmos 2322 Rocket 2.5 23:40:23 10° S 23:45:39 44° ESE 23:50:43 11° NE
Envisat 2.9 23:44:13 10° SSE 23:49:13 64° ENE 23:54:14 10° N
Cosmos 1782 3.9 23:46:01 10° SE 23:49:15 24° E 23:50:12 22° ENE
Cosmos 1634 Rocket 4.3 23:46:09 10° N 23:51:55 40° ENE 23:57:38 10° SSE
SKYMED 3 4.5 23:47:53 10° NNE 23:52:13 68° E 23:56:31 10° S
Cosmos 1470 Rocket 3.5 23:48:15 10° N 23:52:45 86° E 23:57:11 10° S
